28 de septiembre de 2022

Hora Código Tiempo Temp. Visibilidad Cielo nuboso Viento METAR/SPECI
11:50
M
10 °C 10 km+ 1.500 ft 260° 260° 6 kt METAR EDDG 280950Z AUTO 26006KT 230V290 9999 BKN015 BKN020 BKN027 10/07 Q0996 NOSIG
11:20
M
10 °C 10 km+ 1.800 ft 230° 230° 7 kt METAR EDDG 280920Z AUTO 23007KT 210V280 9999 FEW013 BKN018 BKN026 10/07 Q0996 TEMPO BKN014
10:50
M
10 °C 10 km+ 1.800 ft 270° 270° 7 kt METAR EDDG 280850Z AUTO 27007KT 9999 FEW010 BKN018 10/07 Q0996 TEMPO BKN012
10:20
M
9 °C 10 km+ 1.900 ft 290° 290° 5 kt METAR EDDG 280820Z AUTO 29005KT 9999 FEW008 BKN019 09/07 Q0996 TEMPO BKN011
09:50
M
9 °C 10 km+ 2.000 ft 270° 270° 5 kt METAR EDDG 280750Z AUTO 27005KT 9999 SCT008 BKN020 BKN027 09/07 Q0995 TEMPO BKN009
09:20
I
8 °C 8 km 600 ft 270° 270° 5 kt METAR EDDG 280720Z AUTO 27005KT 8000 VCSH BKN006 BKN009 FEW///CB 08/07 Q0995 TEMPO SCT006 BKN015
08:50
I
8 °C 6 km 600 ft 250° 250° 5 kt METAR EDDG 280650Z AUTO 25005KT 220V280 6000 VCSH BKN006 FEW///CB 08/07 Q0995 TEMPO SCT005 BKN015
08:20
I
8 °C 8 km 800 ft 260° 260° 5 kt METAR EDDG 280620Z AUTO 26005KT 8000 -RADZ BKN008 BKN012 BKN018 08/07 Q0995 TEMPO SCT008 BKN015
07:50
M
8 °C 7 km 2.600 ft 260° 260° 4 kt METAR EDDG 280550Z AUTO 26004KT 240V300 7000 -RA SCT008 OVC026 08/07 Q0994 RESHRA TEMPO BKN007
07:20
I
8 °C 6 km 800 ft 260° 260° 5 kt METAR EDDG 280520Z AUTO 26005KT 6000 -RA BKN008 OVC029 08/07 Q0994 TEMPO SCT006 BKN015
06:50
I
8 °C 6 km 900 ft 250° 250° 6 kt METAR EDDG 280450Z AUTO 25006KT 6000 -SHRA SCT006 OVC009 FEW///TCU 08/07 Q0994 TEMPO BKN006
06:20
I
8 °C 8 km 600 ft 250° 250° 7 kt METAR EDDG 280420Z AUTO 25007KT 230V290 8000 -DZ OVC006 08/07 Q0994 TEMPO BKN004
05:50
I
8 °C 10 km+ 800 ft 230° 230° 4 kt METAR EDDG 280350Z AUTO 23004KT 9999 -DZ BKN008 OVC013 08/07 Q0994 NOSIG
05:20
M
8 °C 10 km+ 1.100 ft 230° 230° 4 kt METAR EDDG 280320Z AUTO 23004KT 9999 BKN011 BKN015 OVC021 08/07 Q0994 TEMPO BKN008
04:50
M
8 °C 10 km+ 1.800 ft 230° 230° 3 kt METAR EDDG 280250Z AUTO 23003KT 9999 FEW010 OVC018 08/07 Q0994 TEMPO BKN008
04:20
M
8 °C 10 km+ 1.600 ft 220° 220° 4 kt METAR EDDG 280220Z AUTO 22004KT 9999 FEW009 OVC016 08/07 Q0994 TEMPO BKN008
03:50
M
8 °C 7 km 1.600 ft 200° 200° 4 kt METAR EDDG 280150Z AUTO 20004KT 7000 FEW006 OVC016 08/08 Q0994 TEMPO BKN006
03:20
M
8 °C 6 km 2.100 ft 190° 190° 3 kt METAR EDDG 280120Z AUTO 19003KT 6000 FEW006 OVC021 OVC043 08/08 Q0994 TEMPO BKN006
02:50
M
8 °C 9 km 1.500 ft Var Var 2 kt METAR EDDG 280050Z AUTO VRB02KT 9000 BKN015 BKN021 OVC047 08/08 Q0995 TEMPO BKN010
02:20
V
8 °C 10 km+ 3.400 ft 150° 150° 2 kt METAR EDDG 280020Z AUTO 15002KT 9999 BKN034 OVC045 08/08 Q0995 TEMPO BKN012
01:50
V
8 °C 9 km 3.100 ft 150° 150° 3 kt METAR EDDG 272350Z AUTO 15003KT 9000 -RADZ FEW005 SCT017 OVC031 08/08 Q0995 TEMPO BKN012
01:20
V
8 °C 10 km+ 3.300 ft 150° 150° 4 kt METAR EDDG 272320Z AUTO 15004KT 120V180 9999 -RA FEW005 SCT014 OVC033 08/08 Q0995 TEMPO BKN012
00:50
V
8 °C 10 km+ 3.700 ft 140° 140° 4 kt METAR EDDG 272250Z AUTO 14004KT 9999 -RADZ BKN037 08/08 Q0996 NOSIG
00:20
V
8 °C 10 km+ 3.300 ft 150° 150° 4 kt METAR EDDG 272220Z AUTO 15004KT 9999 -RA FEW015 BKN033 OVC045 08/08 Q0996 NOSIG

27 de septiembre de 2022

Hora Código Tiempo Temp. Visibilidad Cielo nuboso Viento METAR/SPECI
23:50
V
8 °C 10 km+ 3.600 ft 160° 160° 3 kt METAR EDDG 272150Z AUTO 16003KT 9999 -RA BKN036 BKN044 08/07 Q0996 NOSIG
23:20
V
9 °C 10 km+ 3.900 ft 180° 180° 4 kt METAR EDDG 272120Z AUTO 18004KT 160V220 9999 -RA BKN039 OVC046 09/07 Q0996 NOSIG
22:50
V
9 °C 10 km+ - 190° 190° 4 kt METAR EDDG 272050Z AUTO 19004KT 160V220 9999 -RA SCT040 09/07 Q0996 NOSIG
22:20
V
9 °C 10 km+ - 190° 190° 4 kt METAR EDDG 272020Z AUTO 19004KT 160V220 CAVOK 09/07 Q0996 NOSIG
21:50
V
9 °C 10 km+ - 190° 190° 5 kt METAR EDDG 271950Z AUTO 19005KT 160V220 CAVOK 09/06 Q0996 NOSIG
21:20
V
9 °C 10 km+ - 170° 170° 3 kt METAR EDDG 271920Z AUTO 17003KT 140V200 CAVOK 09/07 Q0997 NOSIG
20:50
V
10 °C 10 km+ - 210° 210° 4 kt METAR EDDG 271850Z AUTO 21004KT 9999 FEW032 10/07 Q0997 NOSIG
20:20
V
10 °C 10 km+ - 220° 220° 5 kt METAR EDDG 271820Z AUTO 22005KT 9999 FEW020 10/06 Q0997 NOSIG
19:50
V
10 °C 10 km+ - 220° 220° 5 kt METAR EDDG 271750Z AUTO 22005KT 9999 SCT045 10/07 Q0997 NOSIG
19:20
V
11 °C 10 km+ - 240° 240° 8 kt METAR EDDG 271720Z AUTO 24008KT 200V270 9999 -RA SCT043 11/07 Q0997 NOSIG
18:50
V
11 °C 10 km+ - 250° 250° 6 kt METAR EDDG 271650Z AUTO 25006KT CAVOK 11/07 Q0997 NOSIG
18:20
V
11 °C 10 km+ - 240° 240° 8 kt METAR EDDG 271620Z AUTO 24008KT CAVOK 11/07 Q0997 NOSIG
17:50
V
11 °C 10 km+ - 250° 250° 9 kt METAR EDDG 271550Z AUTO 25009KT 9999 FEW022 11/08 Q0997 NOSIG
17:20
V
11 °C 10 km+ - 250° 250° 10 kt METAR EDDG 271520Z AUTO 25010KT 9999 SCT021 11/08 Q0997 NOSIG
16:50
V
11 °C 10 km+ - 250° 250° 14 kt METAR EDDG 271450Z AUTO 25014KT 9999 SCT020 11/08 Q0997 NOSIG
16:20
V
10 °C 10 km+ - 260° 260° 10 kt METAR EDDG 271420Z AUTO 26010KT 9999 -RA FEW019 10/09 Q0997 RERA NOSIG
15:50
V
11 °C 10 km+ - 250° 250° 12 kt METAR EDDG 271350Z AUTO 25012KT 220V290 9999 VCSH FEW024 FEW///CB 11/09 Q0997 RESHRA NOSIG
15:20
M
11 °C 10 km+ 1.800 ft 250° 250° 15 kt METAR EDDG 271320Z AUTO 25015KT 9999 -SHRA BKN018 BKN031 BKN046 FEW///CB 11/08 Q0996 RESHRA NOSIG
14:50
V
11 °C 10 km+ 3.100 ft 270° 270° 6 kt METAR EDDG 271250Z AUTO 27006KT 240V300 9999 FEW011 BKN031 11/09 Q0996 RESHRA TEMPO SHRA SCT015CB
14:20
V
10 °C 10 km+ 3.300 ft 240° 240° 9 kt METAR EDDG 271220Z AUTO 24009KT 220V280 9999 SHRA FEW016 BKN033 BKN042 FEW///CB 10/09 Q0996 BECMG NSW
13:50
V
11 °C 10 km+ 4.800 ft 240° 240° 14 - 24 kt METAR EDDG 271150Z AUTO 24014G24KT 210V270 9999 -SHRA SCT019 BKN048 FEW///CB 11/08 Q0996
13:20
V
13 °C 10 km+ 4.500 ft 250° 250° 15 kt METAR EDDG 271120Z AUTO 25015KT 9999 FEW021 BKN045 13/07 Q0996 NOSIG
12:50
M
12 °C 10 km+ 2.100 ft 240° 240° 12 kt METAR EDDG 271050Z AUTO 24012KT 9999 BKN021 BKN028 OVC046 12/07 Q0996 NOSIG
12:20
M
11 °C 10 km+ 1.700 ft 240° 240° 16 kt METAR EDDG 271020Z AUTO 24016KT 9999 BKN017 BKN024 BKN036 11/07 Q0996 NOSIG
11:50
M
11 °C 10 km+ 2.100 ft 240° 240° 14 kt METAR EDDG 270950Z AUTO 24014KT 9999 SCT016 BKN021 BKN031 11/08 Q0996 TEMPO BKN014
11:20
M
11 °C 10 km+ 1.700 ft 250° 250° 14 kt METAR EDDG 270920Z AUTO 25014KT 220V280 9999 BKN017 BKN035 11/09 Q0996 TEMPO BKN014
10:50
V
10 °C 10 km+ - 250° 250° 15 kt METAR EDDG 270850Z AUTO 25015KT 9999 -DZ SCT015 10/08 Q0997 NOSIG
10:20
M
10 °C 10 km+ 1.200 ft 250° 250° 15 kt METAR EDDG 270820Z AUTO 25015KT 9999 -RA BKN012 OVC046 10/08 Q0996 BECMG SCT012 BKN030
09:50
M
10 °C 10 km+ 1.100 ft 250° 250° 13 kt METAR EDDG 270750Z AUTO 25013KT 9999 BKN011 10/08 Q0996 TEMPO SCT010 BKN030
09:20
M
10 °C 10 km+ 1.000 ft 250° 250° 11 kt METAR EDDG 270720Z AUTO 25011KT 9999 BKN010 BKN023 10/08 Q0996 BECMG SCT010 BKN025
08:50
V
10 °C 10 km+ - 240° 240° 10 kt METAR EDDG 270650Z AUTO 24010KT 9999 SCT010 10/08 Q0995 TEMPO BKN009
08:20
M
9 °C 10 km+ 2.600 ft 250° 250° 8 kt METAR EDDG 270620Z AUTO 25008KT 9999 SCT008 BKN026 09/08 Q0995 TEMPO BKN010
07:50
I
9 °C 10 km+ 800 ft 240° 240° 9 kt METAR EDDG 270550Z AUTO 24009KT 9999 BKN008 09/08 Q0995 TEMPO BKN008
07:20
V
9 °C 10 km+ - 260° 260° 10 kt METAR EDDG 270520Z AUTO 26010KT 9999 FEW010 SCT035 09/08 Q0995 TEMPO BKN011
06:50
M
9 °C 10 km+ 1.000 ft 250° 250° 9 kt METAR EDDG 270450Z AUTO 25009KT 9999 BKN010 09/08 Q0995 TEMPO SCT009 BKN020
06:20
M
9 °C 10 km+ 1.200 ft 260° 260° 8 kt METAR EDDG 270420Z AUTO 26008KT 9999 BKN012 OVC037 09/09 Q0994 TEMPO BKN008
05:50
M
9 °C 10 km+ 1.200 ft 270° 270° 7 kt METAR EDDG 270350Z AUTO 27007KT 9999 BKN012 OVC043 09/09 Q0994 TEMPO SCT010 BKN020
05:20
M
10 °C 10 km+ 1.000 ft 270° 270° 10 kt METAR EDDG 270320Z AUTO 27010KT 9999 BKN010 10/09 Q0994 TEMPO SCT010 BKN020
04:50
M
10 °C 10 km+ 1.100 ft 270° 270° 9 kt METAR EDDG 270250Z AUTO 27009KT 9999 BKN011 BKN048 10/09 Q0994 TEMPO SCT010 BKN020
04:20
M
10 °C 10 km+ 1.000 ft 270° 270° 9 kt METAR EDDG 270220Z AUTO 27009KT 9999 BKN010 10/09 Q0994 TEMPO SCT010 BKN020
03:50
I
10 °C 10 km+ 900 ft 270° 270° 9 kt METAR EDDG 270150Z AUTO 27009KT 9999 -RADZ BKN009 OVC041 10/10 Q0994 TEMPO SCT010 BKN020
03:20
I
10 °C 10 km+ 800 ft 270° 270° 7 kt METAR EDDG 270120Z AUTO 27007KT 9999 -DZ BKN008 BKN029 10/10 Q0994 TEMPO SCT010 BKN020
02:50
I
10 °C 10 km+ 800 ft 280° 280° 7 kt METAR EDDG 270050Z AUTO 28007KT 9999 -RA BKN008 BKN016 BKN044 10/10 Q0994 TEMPO SCT010
02:20
V
10 °C 10 km+ - 280° 280° 6 kt METAR EDDG 270020Z AUTO 28006KT 9999 -RA SCT009 10/10 Q0994 NOSIG
01:50
I
10 °C 10 km+ 900 ft 270° 270° 7 kt METAR EDDG 262350Z AUTO 27007KT 9999 -RA BKN009 10/10 Q0993 TEMPO 4000 RA SCT010 BKN020
01:20
M
11 °C 10 km+ 1.000 ft 270° 270° 6 kt METAR EDDG 262320Z AUTO 27006KT 9999 BKN010 OVC038 11/10 Q0993 TEMPO 4000 RA SCT010 BKN020
00:50
I
11 °C 10 km+ 900 ft 260° 260° 6 kt METAR EDDG 262250Z AUTO 26006KT 9999 BKN009 BKN040 11/10 Q0993 TEMPO 4000 RA SCT010 BKN020
00:20
I
11 °C 10 km+ 800 ft 230° 230° 6 kt METAR EDDG 262220Z AUTO 23006KT 190V250 9999 BKN008 OVC030 11/10 Q0994 TEMPO 4000 RA SCT010 BKN020

26 de septiembre de 2022

Hora Código Tiempo Temp. Visibilidad Cielo nuboso Viento METAR/SPECI
23:50
I
11 °C 8 km 700 ft 220° 220° 5 kt METAR EDDG 262150Z AUTO 22005KT 8000 -DZ BKN007 BKN010 11/10 Q0994 TEMPO 4000 RA BKN012
23:20
I
11 °C 10 km+ 600 ft 210° 210° 6 kt METAR EDDG 262120Z AUTO 21006KT 190V250 9999 -RA BKN006 BKN009 11/10 Q0994 RERA TEMPO 4000 RA BKN012
22:50
I
11 °C 8 km 700 ft 210° 210° 5 kt METAR EDDG 262050Z AUTO 21005KT 170V250 8000 RA BKN007 BKN045 11/10 Q0994 TEMPO 4000 RA BKN012
22:20
I
11 °C 10 km+ 700 ft 210° 210° 7 kt METAR EDDG 262020Z AUTO 21007KT 9999 -RA BKN007 BKN013 11/10 Q0994 RERA TEMPO 4000 RA BKN012
21:50
I
11 °C 7 km 800 ft 190° 190° 9 kt METAR EDDG 261950Z AUTO 19009KT 160V220 7000 RA BKN008 OVC013 11/10 Q0994 BECMG 26007KT NSW SCT010 BKN020
21:20
M
11 °C 9 km 1.100 ft 190° 190° 9 kt METAR EDDG 261920Z AUTO 19009KT 160V220 9000 RA SCT008 BKN011 11/10 Q0995 TEMPO NSW
20:50
I
11 °C 10 km+ 900 ft 190° 190° 9 kt METAR EDDG 261850Z AUTO 19009KT 160V220 9999 -RA BKN009 OVC013 11/10 Q0995 NOSIG
20:20
I
11 °C 7 km 900 ft 190° 190° 10 kt METAR EDDG 261820Z AUTO 19010KT 160V220 7000 -RADZ BKN009 OVC014 11/10 Q0995 NOSIG
19:50
I
11 °C 7 km 800 ft 190° 190° 11 kt METAR EDDG 261750Z AUTO 19011KT 160V230 7000 -RA BKN008 BKN011 11/10 Q0995 NOSIG
19:20
M
11 °C 7 km 1.100 ft 190° 190° 10 - 20 kt METAR EDDG 261720Z AUTO 19010G20KT 160V230 7000 -DZ SCT008 BKN011 OVC015 11/10 Q0996 NOSIG
18:50
M
11 °C 6 km 1.200 ft 190° 190° 12 kt METAR EDDG 261650Z AUTO 19012KT 160V220 6000 -DZ BKN012 OVC017 11/10 Q0996
18:20
M
11 °C 10 km+ 1.300 ft 190° 190° 11 kt METAR EDDG 261620Z AUTO 19011KT 160V220 9999 -RA BKN013 11/10 Q0996 BECMG BKN009
17:50
M
11 °C 8 km 1.100 ft 180° 180° 10 kt METAR EDDG 261550Z AUTO 18010KT 150V220 8000 -RADZ BKN011 OVC017 11/10 Q0996 BECMG BKN009
17:20
M
11 °C 8 km 1.400 ft 190° 190° 10 kt METAR EDDG 261520Z AUTO 19010KT 160V220 8000 -DZ FEW009 BKN014 OVC020 11/10 Q0997 TEMPO BKN010
16:50
M
12 °C 10 km+ 1.800 ft 200° 200° 11 kt METAR EDDG 261450Z AUTO 20011KT 150V250 9999 -RADZ BKN018 BKN022 12/10 Q0997 NOSIG
16:20
M
13 °C 10 km+ 1.900 ft 190° 190° 10 kt METAR EDDG 261420Z AUTO 19010KT 160V230 9999 -DZ BKN019 BKN024 13/09 Q0997 NOSIG
15:50
M
12 °C 10 km+ 2.300 ft 180° 180° 11 kt METAR EDDG 261350Z AUTO 18011KT 150V220 9999 -DZ BKN023 OVC028 12/09 Q0998 NOSIG
15:20
M
12 °C 10 km+ 2.200 ft 190° 190° 11 kt METAR EDDG 261320Z AUTO 19011KT 9999 -RA OVC022 12/09 Q0998 NOSIG
14:50
M
12 °C 10 km+ 2.000 ft 180° 180° 10 kt METAR EDDG 261250Z AUTO 18010KT 150V210 9999 -RA BKN020 12/09 Q0998 NOSIG
14:20
M
12 °C 10 km+ 2.100 ft 180° 180° 11 kt METAR EDDG 261220Z AUTO 18011KT 140V220 9999 SCT017 BKN021 12/09 Q0999 NOSIG
13:50
M
11 °C 10 km+ 1.700 ft 180° 180° 11 kt METAR EDDG 261150Z AUTO 18011KT 140V210 9999 -RA BKN017 BKN022 11/09 Q0999 NOSIG
13:20
M
11 °C 10 km+ 1.600 ft 180° 180° 11 kt METAR EDDG 261120Z AUTO 18011KT 150V220 9999 -RA OVC016 11/09 Q1000 NOSIG
12:50
M
11 °C 10 km+ 1.600 ft 180° 180° 14 kt METAR EDDG 261050Z AUTO 18014KT 160V220 9999 -RA BKN016 11/09 Q1000 NOSIG
12:20
V
12 °C 10 km+ - 180° 180° 14 - 24 kt METAR EDDG 261020Z AUTO 18014G24KT 140V220 9999 -RA FEW018 SCT032 12/09 Q1001 NOSIG
11:50
V
12 °C 10 km+ 4.600 ft 190° 190° 11 kt METAR EDDG 260950Z AUTO 19011KT 150V220 9999 -RA FEW021 BKN046 12/08 Q1001 NOSIG
Datos más antiguos

Nosotros y terceros seguimos tu comportamiento en Internet en nuestro sitio web con cookies. Si continúas, asumimos que estás de acuerdo con nuestra política de cookies. Más información